DELLINGR

Last updated on Fri Nov 24 2017 00:15:03 GMT+0000 (Greenwich Mean Time)

1 43021U 98067NJ 17327.37284354 .00010366 00000-0 16008-3 0 9990 2 43021 51.6407 324.7522 0002844 109.0723 251.0576 15.54734697 423
UTC large
Height (km)
Speed (km/s)
/
Latitude / Longitude
Inclination (degrees)
Orbital Period (minutes)
Azimuth
Elevation
Range (km)
Doppler Factor

Next 0 passes for location: London (51.5072 / 0.1276)

Sorry there are no passes over London.